DECAYED

STARLINK-3949, 52555 (Decayed)

Orbit data source: Space-Track

STARLINK-3949, 52555 was a payload satellite owned by SpaceX/Seattle (US) in LEO that was launched on Fri, 13 May 2022 UTC via an FALCON 9 launch vehicle from the Air Force Western Test Range (AFWTR). Payload-class satellites include a variety of spacecraft equipped with specific instruments for various scientific and technological missions. These include communications satellites like Starlink; space stations such as the ISS; scientific satellites like the Hubble; Earth observation satellites from companies like Planet Labs, Umbra, and HawkEye 360; GPS; miniature CubeSats for education and research; and military/defense satellites.

Not visible in the next 10 days
Identifier
52555, 2022-051Y
Orbit
Decayed
Country
Flag of USUS
Related business
Manufacturer
SpaceX/Seattle
Mission
Decayed Commercial Communications
Bus & Motor
STARLINK, Unknown motor
Mass
297 kg wet, ~275 kg dry
Launch date (UTC)
2022-05-13 (4 years ago)
Launch vehicle
FALCON 9
Launch site
Air Force Western Test Range (AFWTR)
Object type
Payload
Rocket body
Debris
Shape & HBR
Box + 1 Pan, 10.1 m
Radar Cross Section
13.562 m², Large (>1 m²)

Expand to show TLE details & history
Last TLE update: 9 months ago

TLE from 9 months ago
0 STARLINK-3949
1 52555U 22051Y   25253.66425984  .11723635  12552-4  24417-3 0  9991
2 52555  53.1929 101.7099 0009100 281.5044  78.4985 16.46227340185903
Epoch: 2025-09-10T15:56Z
TLE epoch observation values (Epoch: 2025-09-10T15:56:32.050Z)
Latitude
-0.00002°
Longitude
-127.36109°
Altitude
149.058 km
Speed
7.819 km/s
True Right ascension
06h 46m 50s
True Declination
0° 00' 00"
Sunlit
Object was in daylight at epoch
Visualization orbit readout
Latitude
Unknown
Longitude
Unknown
Altitude
Unknown
Speed
Unknown
Apparent Right ascension
Unknown
Apparent Declination
Unknown
Sunlit
N/A
Visualization observer readout
Local Sidereal Time
21:31:39
Azimuth
Unknown
Elevation
Unknown
Doppler factor
Unknown
Orbital elements
Apogee altitude
155.493 km
Perigee altitude
143.612 km
Semi-major axis
6,527.689 km
Eccentricity
0.00091
Inclination
53.1929°
RAAN
101.7099°
Arg. of periapsis
281.5044°
True anomaly
78.60071°
Mean anomaly
78.4985°
Eccentric anomaly
78.5496°
Mean motion
4.11532 °/min
Orbital period
87.48 mins
BSTAR
0.00024417
Loading maneuver chart data...
Computing Atmospheric mass density...
Loading historical data...
Loading historical data...
Loading historical data...
Loading historical data...
Loading historical data...
Loading historical data...
Loading historical data...

Documentation

Showing up to 5 results
|